AirNav   Air Wisconsin pilot careers
 
 1439 users online  

22T Tecumseh Mills Airport
Tecumseh, Michigan, USA

GOING TO TECUMSEH?


FAA INFORMATION EFFECTIVE 20 JUNE 2019

Location

FAA Identifier: 22T
Lat/Long: 42-02-01.8551N / 083-52-42.0727W
42-02.030918N / 083-52.701212W
42.0338486 / -83.8783535
(estimated)
Elevation: 797 ft. / 243 m
From city: 4 miles NE of TECUMSEH, MI
Time zone: UTC -4 (UTC -5 during Standard Time)
Zip code: 49286

Airport Operations

Airport use: Open to the public
Activation date: 08/2015
Control tower: no
ARTCC: CLEVELAND CENTER
FSS: LANSING FLIGHT SERVICE STATION
NOTAMs facility: LAN (NOTAM-D service available)
Attendance: UNATNDD
Wind indicator: yes
Segmented circle: no

Airport Communications

CTAF: 122.9
WX ASOS at ARB (13 nm NE): PHONE 734-668-7173
WX ASOS at ADG (13 nm SW): 118.375 (517-265-9089)
WX ASOS at YIP (20 nm NE): PHONE 734-961-6843

Nearby radio navigation aids

VOR radial/distance  VOR name  Freq  Var
CRLr270/18.8CARLETON VOR/DME115.7003W
DXOr251/25.2DETROIT VOR/DME113.4006W
SVMr212/25.8SALEM VORTAC114.3003W
JXNr123/29.1JACKSON VOR/DME109.6005W
VWVr345/36.6WATERVILLE VOR/DME113.1002W
LFDr097/39.5LITCHFIELD VOR/DME111.2005W

 
NDB name  Hdg/Dist  Freq  Var  ID
TECUMSEHat field23906WTCU - -.-. ..-
ADRIAN048/13.327806WADG .- -.. --.
GROSSE ILE270/32.641907WRYS .-. -.-- ...

Airport Services

Airframe service: NONE
Powerplant service: NONE
Bottled oxygen: NONE
Bulk oxygen: NONE

Runway Information

Runway 13/31

Dimensions: 4278 x 75 ft. / 1304 x 23 m
Surface: asphalt, in fair condition
RUNWAY 13  RUNWAY 31
Latitude: 42-02.198333N42-01.794500N
Longitude: 083-53.018500W083-52.244333W
Elevation: 789.0 ft.794.0 ft.
Traffic pattern: leftleft
Runway heading: 125 true305 true
Displaced threshold: 200 ft.210 ft.
Markings: basic, in good conditionbasic, in good condition
Obstructions: 85 ft. trees, 1520 ft. from runway, 15:1 slope to clear15 ft. road, 210 ft. from runway

Runway 7/25

Dimensions: 4258 x 75 ft. / 1298 x 23 m
Surface: asphalt, in fair condition
RUNWAY 7  RUNWAY 25
Latitude: 42-01.905667N42-02.225500N
Longitude: 083-53.189667W083-52.353000W
Elevation: 794.0 ft.794.0 ft.
Traffic pattern: leftleft
Runway heading: 063 true243 true
Displaced threshold: 365 ft.no
Markings: basic, in good conditionbasic, in good condition
Obstructions: 15 ft. road, 240 ft. from runway, 2:1 slope to clear
RY 07 APCH RATIO 20:1 AT DSPLCD THLD, +78 FT TREES 1560 FT DST.
25 ft. pline, marked, 732 ft. from runway, 21:1 slope to clear
RWY 25 +10 FT PVT ROAD 0 FT DST, 95 FT R.

Airport Ownership and Management from official FAA records

Ownership: Privately-owned
Owner: DANIEL MILLS
9797 STONE HWY
TECUMSEH, MI 49286
Phone (734) 428-0934
Manager: DANIEL MILLS
9398 NEAL RD
MANCHESTER, MI 48158
Phone 734-428-0934

Airport Operational Statistics

Aircraft based on the field: 4
Single engine airplanes: 4
    
Aircraft operations: 100/year *
50% transient general aviation
50% local general aviation
* for 12-month period ending 31 December 2017

Additional Remarks

FOR CD CTC DETROIT APCH AT 800-499-8181.
RWY LGTS HAVE NONSTANDARD CONFIGN; NOT FOR PUB USE.
LARGE BIRDS AND DEER ON AND INVOF RWYS.

Instrument Procedures

There are no published instrument procedures at 22T.

Some nearby airports with instrument procedures:

KARB - Ann Arbor Municipal Airport (13 nm NE)
KADG - Lenawee County Airport (13 nm SW)
KYIP - Willow Run Airport (20 nm NE)
KDUH - Toledo Suburban Airport (20 nm SE)
KTTF - Custer Airport (21 nm E)
 
Loc | Ops | Rwys | IFR | FBO | Links
Com | Nav | Svcs | Stats | Notes
Aerial photo
WARNING: Photo may not be current or correct
Aerial photo of 22T (Tecumseh Mills Airport)
Photo by Brandon Schultz
Taken in July 2016
looking east.

Do you have a better or more recent aerial photo of Tecumseh Mills Airport that you would like to share? If so, please send us your photo.

 
Airport distance calculator
Flying to Tecumseh Mills Airport? Find the distance to fly.

From to 22T

Sunrise and sunset
Times for 26-Jun-2019
 Local
(UTC-4)
 Zulu
(UTC)
Morning civil twilight05:2809:28
Sunrise06:0210:02
Sunset21:1401:14
Evening civil twilight21:4901:49

Current date and time
Zulu (UTC)  26-Jun-2019 14:37:02
Local (UTC-4)  26-Jun-2019 10:37:02
 
METAR
KARB 
13nm NE 
734-668-7173
261353Z 27006KT 10SM CLR 26/17 A3004 RMK AO2 SLP166 T02560172
KADG 
14nm SW 
261353Z AUTO VRB05KT 10SM CLR 24/17 A3006 RMK AO2 SLP177 T02390172 TSNO
KYIP 
19nm NE 
261353Z 23008KT 10SM CLR 26/18 A3004 RMK AO2 SLP165 T02610178
KDUH 
21nm SE 
261417Z AUTO 24005KT 10SM CLR 26/19 A3005 RMK AO2 T02600187
KTTF 
21nm E 
261418Z AUTO 24007KT 10SM CLR 26/19 A3004 RMK AO2 T02630186
TAF
KYIP 
19nm NE 
261120Z 2612/2712 25008KT P6SM BKN200 FM261800 26012KT P6SM FEW070 SCT200 FM270000 VRB04KT P6SM FEW250
NOTAMs
Click for the latest NOTAMs
NOTAMs are issued by the DoD/FAA and will open in a separate window not controlled by AirNav.

 

 
 

Would you like to see your business listed on this page?

 If your business provides an interesting product or service to pilots, flight crews, aircraft, or users of the Tecumseh Mills Airport, you should consider listing it here.  To start the listing process, click on the button below
 
Add a business
 

Other Pages about Tecumseh Mills Airport

Page from the Michigan Airport Directory (PDF)
 
Update a link
 
Copyright © AirNav, LLC. All rights reserved. Privacy Policy  Contact